EN

Hourly Weather Leoben

Today, 21 January, Thursday

Time Temperature Precipitation Wind Pressure Humidity
00:00 -2°C° 0 mm 2 mps 702 mmHg 92%
01:00 -2°C° 0 mm 2 mps 701 mmHg 92%
02:00 -2°C° 0 mm 2 mps 701 mmHg 92%
03:00 -3°C° 0 mm 2 mps 701 mmHg 92%
04:00 -3°C° 0 mm 2 mps 700 mmHg 92%
05:00 -3°C° 0 mm 2 mps 700 mmHg 92%
06:00 -3°C° 0 mm 2 mps 700 mmHg 92%
07:00 -3°C° 0 mm 2 mps 700 mmHg 92%
08:00 -2°C° 0 mm 2 mps 700 mmHg 91%
09:00 +1°C° 0 mm 2 mps 701 mmHg 89%
10:00 +2°C° 0 mm 2 mps 701 mmHg 87%
11:00 +3°C° 0 mm 2 mps 701 mmHg 87%
12:00 +5°C° 0 mm 1 mps 701 mmHg 88%
13:00 +6°C° 0 mm 1 mps 701 mmHg 88%
14:00 +5°C° 0 mm 1 mps 701 mmHg 90%
15:00 +5°C° 0 mm 1 mps 701 mmHg 92%
16:00 +4°C° 0 mm 1 mps 701 mmHg 94%
17:00 +3°C° 0 mm 1 mps 701 mmHg 94%
18:00 +3°C° 0 mm 1 mps 701 mmHg 94%
19:00 +1°C° 0 mm 2 mps 701 mmHg 94%
20:00 +2°C° 0 mm 1 mps 700 mmHg 94%
21:00 +2°C° 0 mm 1 mps 700 mmHg 94%
22:00 +1°C° 0 mm 1 mps 700 mmHg 93%
23:00 +2°C° 0 mm 1 mps 699 mmHg 94%

Tomorrow, 22 January, Friday

Time Temperature Precipitation Wind Pressure Humidity
00:00 +2°C° 0 mm 1 mps 698 mmHg 94%
01:00 +2°C° 0 mm 1 mps 698 mmHg 94%
02:00 +2°C° 0 mm 1 mps 697 mmHg 95%
03:00 +2°C° 0 mm 1 mps 697 mmHg 95%
04:00 +3°C° 0 mm 1 mps 696 mmHg 95%
05:00 +3°C° 0 mm 1 mps 696 mmHg 96%
06:00 +3°C° 0 mm 1 mps 696 mmHg 96%
07:00 +3°C° 0 mm 1 mps 696 mmHg 96%
08:00 +4°C° 0.1 mm 1 mps 696 mmHg 96%
09:00 +5°C° 0.1 mm 1 mps 696 mmHg 97%
10:00 +5°C° 0.1 mm 1 mps 696 mmHg 97%
11:00 +5°C° 0 mm 1 mps 696 mmHg 98%
12:00 +6°C° 0 mm 1 mps 696 mmHg 98%
13:00 +6°C° 0 mm 1 mps 696 mmHg 98%
14:00 +6°C° 0 mm 1 mps 695 mmHg 98%
15:00 +6°C° 0 mm 1 mps 695 mmHg 98%
16:00 +5°C° 0 mm 1 mps 694 mmHg 98%
17:00 +5°C° 0 mm 1 mps 694 mmHg 98%
18:00 +5°C° 0 mm 1 mps 693 mmHg 98%
19:00 +4°C° 0 mm 1 mps 693 mmHg 98%
20:00 +4°C° 0 mm 1 mps 693 mmHg 98%
21:00 +4°C° 0 mm 1 mps 692 mmHg 98%
22:00 +5°C° 0 mm 1 mps 692 mmHg 98%
23:00 +5°C° 0.4 mm 1 mps 691 mmHg 98%

Day after tomorrow, 23 January, Saturday

Time Temperature Precipitation Wind Pressure Humidity
00:00 +4°C° 0.4 mm 2 mps 690 mmHg 98%
01:00 +4°C° 0.4 mm 2 mps 690 mmHg 98%
02:00 +5°C° 0.3 mm 1 mps 690 mmHg 98%
03:00 +5°C° 0.3 mm 1 mps 689 mmHg 98%
04:00 +5°C° 0.3 mm 1 mps 689 mmHg 98%
05:00 +5°C° 0.2 mm 1 mps 690 mmHg 98%
06:00 +5°C° 0.2 mm 1 mps 690 mmHg 99%
07:00 +5°C° 0.2 mm 1 mps 691 mmHg 99%
08:00 +4°C° 0.7 mm 1 mps 691 mmHg 98%
09:00 +4°C° 0.7 mm 1 mps 692 mmHg 97%
10:00 +4°C° 0.7 mm 1 mps 692 mmHg 96%
11:00 +3°C° 1.4 mm 2 mps 692 mmHg 95%
12:00 +2°C° 1.4 mm 2 mps 692 mmHg 95%
13:00 +2°C° 1.4 mm 2 mps 692 mmHg 94%
14:00 +2°C° 0.7 mm 2 mps 692 mmHg 95%
15:00 +3°C° 0.7 mm 1 mps 692 mmHg 95%
16:00 +2°C° 0.7 mm 1 mps 692 mmHg 95%
17:00 +2°C° 0.4 mm 1 mps 692 mmHg 96%
18:00 +1°C° 0.4 mm 1 mps 692 mmHg 96%
19:00 +1°C° 0.4 mm 1 mps 692 mmHg 97%
20:00 +1°C° 0.5 mm 1 mps 692 mmHg 97%
21:00 +1°C° 0.5 mm 1 mps 691 mmHg 97%
22:00 0°C° 0.5 mm 1 mps 691 mmHg 97%
23:00 0°C° 0.6 mm 1 mps 691 mmHg 97%

24 January, Sunday

Time Temperature Precipitation Wind Pressure Humidity
00:00 0°C° 0.6 mm 1 mps 692 mmHg 96%
01:00 0°C° 0.6 mm 1 mps 692 mmHg 96%
02:00 0°C° 0.3 mm 1 mps 692 mmHg 96%
03:00 0°C° 0.3 mm 1 mps 692 mmHg 96%
04:00 0°C° 0.3 mm 1 mps 692 mmHg 96%
05:00 0°C° 0.2 mm 1 mps 692 mmHg 95%
06:00 0°C° 0.2 mm 1 mps 693 mmHg 94%
07:00 -1°C° 0.2 mm 1 mps 693 mmHg 94%
08:00 -2°C° 0.1 mm 2 mps 694 mmHg 91%
09:00 -1°C° 0.1 mm 2 mps 694 mmHg 88%
10:00 -1°C° 0.1 mm 2 mps 695 mmHg 86%
11:00 -1°C° 0 mm 2 mps 695 mmHg 82%
12:00 +1°C° 0 mm 2 mps 695 mmHg 78%
13:00 +1°C° 0 mm 2 mps 695 mmHg 74%
14:00 +2°C° 0 mm 1 mps 695 mmHg 77%
15:00 +1°C° 0 mm 1 mps 695 mmHg 80%
16:00 0°C° 0 mm 0 mps 695 mmHg 83%
17:00 -2°C° 0 mm 0 mps 695 mmHg 84%
18:00 -2°C° 0 mm 1 mps 695 mmHg 84%
19:00 -4°C° 0 mm 1 mps 695 mmHg 85%
20:00 -4°C° 0 mm 1 mps 695 mmHg 83%
21:00 -6°C° 0 mm 1 mps 695 mmHg 82%
22:00 -6°C° 0 mm 1 mps 695 mmHg 80%
23:00 -6°C° 0 mm 1 mps 695 mmHg 79%

25 January, Monday

Time Temperature Precipitation Wind Pressure Humidity
00:00 -6°C° 0 mm 1 mps 695 mmHg 78%
01:00 -7°C° 0 mm 1 mps 695 mmHg 76%
02:00 -7°C° 0 mm 1 mps 695 mmHg 76%
03:00 -7°C° 0 mm 1 mps 695 mmHg 76%
04:00 -8°C° 0 mm 2 mps 695 mmHg 76%
05:00 -8°C° 0 mm 2 mps 695 mmHg 76%
06:00 -8°C° 0 mm 2 mps 695 mmHg 75%
07:00 -8°C° 0 mm 2 mps 695 mmHg 75%
08:00 -7°C° 0 mm 2 mps 696 mmHg 76%
09:00 -5°C° 0 mm 2 mps 696 mmHg 76%
10:00 -2°C° 0 mm 1 mps 697 mmHg 77%
11:00 -3°C° 0 mm 2 mps 697 mmHg 75%
12:00 -2°C° 0 mm 3 mps 697 mmHg 73%
13:00 -1°C° 0 mm 3 mps 698 mmHg 71%
14:00 -2°C° 0 mm 3 mps 698 mmHg 73%
15:00 -4°C° 0 mm 3 mps 698 mmHg 76%
16:00 -4°C° 0 mm 3 mps 699 mmHg 78%
17:00 -5°C° 0.1 mm 3 mps 699 mmHg 81%
18:00 -7°C° 0.1 mm 3 mps 700 mmHg 84%
19:00 -7°C° 0.1 mm 2 mps 700 mmHg 87%
20:00 -7°C° 0 mm 2 mps 701 mmHg 88%
21:00 -7°C° 0 mm 2 mps 701 mmHg 89%
22:00 -7°C° 0 mm 2 mps 702 mmHg 90%
23:00 -8°C° 0 mm 2 mps 702 mmHg 90%

26 January, Tuesday

Time Temperature Precipitation Wind Pressure Humidity
00:00 -8°C° 0 mm 2 mps 702 mmHg 90%
01:00 -8°C° 0 mm 2 mps 702 mmHg 90%
02:00 -8°C° 0 mm 2 mps 702 mmHg 89%
03:00 -8°C° 0 mm 2 mps 702 mmHg 89%
04:00 -7°C° 0 mm 1 mps 702 mmHg 88%
05:00 -7°C° 0.1 mm 1 mps 702 mmHg 89%
06:00 -6°C° 0.1 mm 1 mps 702 mmHg 89%
07:00 -6°C° 0.1 mm 1 mps 702 mmHg 90%
08:00 -4°C° 0.3 mm 1 mps 703 mmHg 90%
09:00 -2°C° 0.3 mm 1 mps 703 mmHg 90%
10:00 -1°C° 0.3 mm 1 mps 703 mmHg 90%
11:00 0°C° 0.1 mm 1 mps 703 mmHg 87%
12:00 +1°C° 0.1 mm 1 mps 703 mmHg 83%
13:00 +2°C° 0.1 mm 1 mps 703 mmHg 79%
14:00 +2°C° 0.1 mm 1 mps 703 mmHg 82%
15:00 +1°C° 0.1 mm 1 mps 703 mmHg 85%
16:00 0°C° 0.1 mm 1 mps 703 mmHg 87%
17:00 -1°C° 0 mm 1 mps 702 mmHg 87%
18:00 -2°C° 0 mm 1 mps 702 mmHg 88%
19:00 -3°C° 0 mm 1 mps 702 mmHg 88%
20:00 -3°C° 0 mm 1 mps 701 mmHg 88%
21:00 -3°C° 0 mm 1 mps 701 mmHg 88%
22:00 -2°C° 0 mm 1 mps 700 mmHg 89%
23:00 -3°C° 0 mm 1 mps 699 mmHg 89%
Show more

We Need Your Consent

Meteoprog and our Service Providers may store and access personal data such as cookies, device identifiers or other similar technologies on your device and process such data to personalise content and ads, as well as provide social media features and to analyse the traffic.

  • Store and/or access information on your device

    Cookies, device identifiers or other information can be stored or accessed on your device for the purposes indicated above.

  • Personalised ads and content, ad and content measurement, audience insights, and products development

    Ads and content can be personalised based on a profile. More data can be added to better personalise ads and content. Ad and content performance can be measured. Insights about the audience who saw the ads and content can be derived. Such data can be used to develop or improve user’s experience, systems and software.

By clicking ‘I Agree’ you will allow the use of indicated cookies, device identifiers, web beacons or other similar technologies. Your settings can be changed in the browser on your device.

For certain purposes, legitimate interests may be relied on, rather than consent. You can read more about this in our Privacy and Cookie Policy.